CAPE
986 1177 1235 919 1294 1134 1122 1053 649 722 1324 1526 1797 2021 1820 1594 1552 1536 1371 837 402 366 204 262 223 236 161 343 493 695 726 774 770 824 785 874 904 1016 925 740 721 756 746 727 691 734 703 538 297 243 179 106 44 27 41 39 186 652 515 291 167 37 10 0 0 1 1 0 1 2 2 1 1 2 0 0 0 1 0 1 2 2 2 3 2
1270 1617 1822 891 1261 1340 1301 906 673 1117 972 1458 1889 1819 1835 1559 1342 1320 1254 822 607 386 266 116 175 7 172 356 318 644 751 753 785 878 724 812 803 846 968 694 713 870 910 863 734 790 825 748 617 413 250 196 107 52 63 59 23 292 675 459 262 75 11 0 0 0 0 0 0 1 2 2 2 1 1 1 1 1 0 0 0 0 0 1 0
1460 1629 1781 1391 1321 1303 1506 1433 1230 1204 1272 1564 1592 1652 1697 1681 1158 1096 1264 1033 606 464 448 403 361 276 172 217 96 372 730 802 780 748 777 819 792 802 1016 984 903 1014 912 885 946 868 930 931 852 541 288 255 203 146 124 76 42 68 733 522 308 164 48 6 0 0 1 0 0 0 0 1 1 2 1 1 1 2 2 1 0 0 0 0 0
1266 1021 2215 1707 1537 1637 1836 1789 1625 1416 1470 1374 1212 1032 1036 1410 1296 1081 1149 918 659 547 531 454 442 367 204 122 62 67 335 694 854 763 815 830 736 732 925 981 1122 1134 1076 898 996 1219 1045 1079 980 766 502 278 284 240 184 147 102 96 593 641 345 243 136 42 13 0 0 2 1 1 1 1 3 2 2 2 2 0 0 0 2 2 0 0 2
1454 1460 2036 1768 2042 1953 1795 1644 1596 1412 1497 1203 1004 1105 1331 1383 1210 1126 1023 880 789 569 536 451 419 402 461 396 147 105 131 359 580 785 824 895 783 704 873 932 957 1201 1046 1040 981 1072 1258 1192 1091 980 741 380 264 294 229 273 178 140 551 754 442 350 288 116 49 13 0 0 0 2 2 2 0 1 1 1 1 1 1 0 0 1 2 2 0
1448 1363 1599 1675 2101 1620 1725 1855 1990 1783 1555 1067 1078 1256 1131 998 979 787 829 813 712 586 501 469 426 433 507 563 440 358 107 272 303 457 776 885 863 737 743 842 864 997 1019 1362 1157 1013 1166 1300 1328 1096 937 756 506 373 307 262 312 179 278 771 584 470 416 279 114 42 3 0 0 2 2 2 2 2 4 2 1 0 0 1 1 1 0 0 1
1354 1232 1519 1819 1625 1573 1380 1645 1900 1890 1726 1136 1171 1148 790 668 751 579 624 581 572 492 450 433 441 451 357 421 434 348 336 347 426 292 347 650 867 715 625 750 729 815 949 969 1135 1122 1078 1188 1677 1473 1177 885 804 701 581 239 381 309 207 637 706 563 498 370 305 136 34 9 0 1 4 4 6 5 1 2 1 1 3 1 1 0 1 1 0
1041 1334 1221 1874 1526 1490 1027 1324 1543 1535 1399 1193 1133 802 642 479 477 505 490 481 476 368 383 384 378 393 404 387 180 316 326 322 338 400 258 286 328 544 631 612 599 620 866 844 922 1004 1058 1107 1348 1466 1431 1259 884 815 802 631 414 388 334 266 587 606 485 339 320 338 154 106 14 2 3 4 5 4 2 2 2 2 5 3 2 1 0 0 0
501 580 1147 1798 1546 1583 1521 1532 1297 1238 1226 1059 938 776 669 458 305 305 284 341 306 254 34 388 307 271 376 864 436 310 281 277 263 258 108 50 274 284 348 612 670 777 521 642 667 894 1054 1099 1218 1366 1292 1240 1304 1020 963 946 821 445 508 391 388 522 451 317 344 280 290 238 96 22 7 5 2 4 3 3 2 3 4 6 4 1 0 0 0
484 723 986 1854 1559 1704 1767 1686 1284 1172 1180 1026 872 742 645 428 316 284 138 17 8 21 317 709 1023 964 1270 1255 1123 858 322 173 214 192 119 58 224 245 253 305 377 534 579 532 514 593 864 1072 1146 1267 1353 1124 1108 1369 1067 1044 1084 638 614 719 618 440 433 419 333 292 230 355 213 104 18 5 1 1 3 3 2 2 2 5 5 1 1 1 1
373 624 947 1914 1608 1620 1566 1501 1276 1104 1097 1033 992 822 687 559 335 284 241 252 286 178 485 918 1101 952 902 975 1129 1169 743 469 476 206 160 8 85 174 206 204 276 301 406 435 385 426 602 845 1081 1176 1294 1320 1004 1254 1336 1370 1282 1039 704 915 991 749 477 532 414 416 276 307 334 171 55 12 0 0 1 2 2 1 2 2 3 3 0 1 0
914 998 1577 1730 1588 1617 1525 1382 1191 1138 1106 1087 1049 997 910 708 597 512 575 733 511 537 704 932 886 973 958 918 1272 1192 671 433 476 375 8 7 17 33 58 116 172 246 410 596 614 610 577 658 930 1112 1220 1309 1212 1040 1266 1327 1314 1557 1176 958 1231 1231 852 606 636 588 343 277 318 360 143 52 0 0 0 1 2 1 1 1 1 2 1 1 0
845 1382 1768 1744 1674 1688 1628 1492 1317 1191 1141 1204 1234 1261 1223 1017 922 786 677 820 928 874 1026 934 1021 1254 1112 1181 1302 887 439 195 228 169 19 0 0 0 0 2 149 286 642 759 699 820 894 803 689 881 1119 1255 1253 1201 1140 1176 1187 1257 1572 1474 1514 1739 1485 999 774 752 643 380 337 467 304 111 37 0 0 0 0 1 0 0 0 0 1 1 1
1150 1682 2023 2043 1857 1564 1684 1435 1249 1115 1128 1134 1042 932 900 921 885 1000 1118 1014 1050 1015 1290 1107 893 977 1091 1252 1182 1288 1056 562 97 80 58 0 0 0 0 0 15 351 794 892 738 768 819 976 763 838 960 1050 1196 1179 1183 1173 1154 1157 1530 1774 1796 1878 1633 1672 1053 921 937 735 465 436 495 242 83 7 0 0 0 1 1 0 0 0 0 0 0
784 1130 1477 1779 1795 1738 1577 1358 1257 1209 1114 1003 874 764 672 647 746 658 772 745 960 902 709 880 926 955 1066 690 806 567 426 453 176 14 39 0 0 0 0 0 0 0 381 826 704 659 842 658 589 757 866 846 1009 1116 1135 1174 1188 1142 1141 1322 1728 1896 1574 1323 1472 1359 1166 1120 849 604 587 382 162 84 20 0 2 0 0 0 0 0 0 0 0
39 659 960 1304 1655 1695 1557 1440 1338 1255 1105 924 799 671 527 476 785 664 640 548 595 466 540 796 825 894 466 573 818 583 24 29 0 0 0 0 1 0 0 2 0 0 69 323 649 734 722 961 852 558 670 903 501 564 616 1064 1100 1165 1159 1128 1097 1305 1832 1566 1053 1106 1208 1359 1346 1115 663 557 368 193 112 35 15 4 0 0 0 0 0 0 0
0 0 0 695 1223 1420 1476 1508 1466 1319 1029 818 670 488 400 346 427 585 388 411 460 915 782 766 704 654 502 554 423 477 258 554 15 0 0 2 0 4 114 51 0 2 65 130 186 360 741 885 822 734 569 685 613 437 332 558 810 956 1080 1037 1015 945 984 1330 1726 1490 1323 1175 1166 1131 1066 624 599 369 218 140 67 28 5 0 0 0 0 0 0
0 0 0 415 1005 1211 1203 1379 1500 1352 1128 913 618 476 482 500 548 713 515 879 918 856 767 685 641 793 819 474 300 68 495 622 64 1 0 191 0 0 0 0 0 0 8 55 66 117 276 421 747 923 1200 875 845 776 524 579 856 826 852 884 828 840 858 916 1137 1359 1761 1350 1243 1262 1073 899 625 522 322 201 120 72 22 5 0 0 0 0 0
0 0 0 0 0 128 223 522 1068 1348 1061 868 692 606 547 732 808 756 799 828 829 584 948 940 888 599 714 830 540 982 592 180 160 243 0 0 242 195 157 0 112 89 112 124 121 117 129 294 631 1132 1510 1244 809 599 582 682 827 893 848 802 823 809 752 687 697 1383 1766 1861 1407 1175 1184 1127 902 572 428 264 160 106 64 21 8 2 0 0 0
0 0 0 0 0 0 0 0 0 110 260 0 142 503 630 580 557 659 836 978 772 816 1055 981 1182 994 810 630 394 539 562 499 384 281 48 53 4 0 152 0 383 332 271 223 240 301 309 198 149 422 621 914 1115 872 773 582 682 776 882 690 739 873 902 814 602 550 772 1662 1860 1460 1441 1331 1240 889 604 346 290 256 128 104 55 15 2 0 0
0 0 0 0 0 0 0 0 4 6 0 0 0 51 63 53 125 549 666 613 549 678 894 1070 867 563 566 605 616 407 463 374 247 282 324 194 77 0 0 0 0 0 0 9 23 60 169 245 218 123 151 448 513 314 448 294 292 492 756 803 771 903 975 942 851 690 505 530 1184 1997 1687 1228 1647 1230 912 801 654 557 495 429 350 228 26 7 0
0 0 0 0 0 0 0 0 0 0 0 4 9 4 0 0 0 201 420 268 222 159 170 249 462 546 522 229 79 0 0 0 0 0 183 127 70 0 0 0 0 0 0 0 0 0 14 92 197 178 106 273 315 25 0 262 466 325 195 330 533 672 934 965 891 865 886 871 832 1033 1834 1837 1222 927 906 874 758 676 654 613 543 507 398 339 168
0 0 0 0 0 0 0 0 0 0 0 0 0 0 0 3 0 0 0 0 0 0 0 0 22 32 0 0 0 0 0 0 0 0 0 0 0 0 0 0 0 0 0 0 0 0 0 12 76 100 144 163 178 117 250 481 818 865 525 6 123 573 696 738 813 856 844 897 876 906 944 1240 1456 1366 1155 805 711 776 774 578 625 547 487 484 373
0 0 0 0 0 0 0 0 0 0 0 0 0 0 0 0 0 0 0 0 0 0 0 0 0 0 0 0 0 0 0 0 0 0 0 0 0 0 0 0 0 0 0 0 0 0 0 0 0 0 6 12 22 58 108 147 295 716 742 462 590 297 443 782 918 891 850 812 445 682 823 870 951 1267 1220 888 793 1031 999 797 832 808 723 662 557
0 0 0 0 0 0 0 0 0 0 0 0 0 0 0 0 0 0 0 0 0 0 0 0 0 0 0 0 0 0 0 0 0 0 0 0 0 0 0 0 0 0 0 0 0 0 0 0 0 0 0 0 0 26 91 139 330 578 725 395 469 506 544 568 790 933 975 996 956 913 902 755 792 815 566 631 506 895 971 873 891 869 744 758 552
0 0 0 0 0 0 0 0 0 0 0 0 0 0 0 0 0 0 0 0 0 0 0 0 0 0 0 0 0 0 0 0 0 0 0 0 0 0 0 0 0 0 0 0 0 0 0 0 0 0 0 0 42 28 69 85 144 186 298 103 98 171 296 345 601 677 638 606 707 784 780 788 568 662 962 1068 705 654 713 788 722 786 684 732 647
0 0 0 0 0 0 0 0 0 0 0 0 0 0 0 0 0 0 0 0 0 0 0 0 0 0 0 0 0 0 0 0 0 0 0 0 0 0 0 0 0 0 0 0 0 0 0 0 0 0 0 0 24 24 100 125 213 254 175 99 114 136 77 45 65 93 268 268 400 440 462 441 416 396 336 673 1093 1132 918 686 672 769 655 657 617
0 0 0 0 0 0 0 0 0 0 0 0 0 0 0 0 0 0 0 0 0 0 0 0 0 0 0 0 0 0 0 0 0 0 0 0 0 0 0 0 0 0 0 0 0 0 0 0 0 0 0 0 85 116 119 127 136 123 113 96 62 53 21 48 57 72 90 114 183 268 290 232 195 197 90 134 429 697 899 985 944 743 725 793 683
0 0 0 0 0 0 0 0 0 0 0 0 0 0 0 0 0 0 0 0 0 0 0 0 0 0 0 0 0 0 0 0 0 0 0 0 0 0 0 0 0 0 0 0 0 0 0 0 0 0 0 0 91 107 101 60 0 0 0 0 0 0 0 0 0 0 79 89 99 180 251 198 108 0 0 0 0 0 0 161 530 749 856 947 890
0 0 0 0 0 0 0 0 0 0 0 0 0 0 0 0 0 0 0 0 0 0 0 0 0 0 0 0 0 0 0 0 0 0 0 0 0 0 0 0 0 0 0 0 0 0 0 0 0 0 0 0 0 0 0 0 0 0 0 0 0 0 0 0 0 0 0 11 0 23 150 244 170 40 0 0 0 0 0 0 0 55 352 608 790
0 0 0 0 0 0 0 0 0 0 0 0 0 0 0 0 0 0 0 0 0 0 0 0 0 0 0 0 0 0 0 0 0 0 0 0 0 0 0 0 0 0 0 0 0 0 0 0 0 0 0 0 0 0 0 0 0 0 0 0 0 0 0 0 0 0 0 0 0 0 0 91 147 89 0 0 0 0 0 0 0 0 0 0 245
0 0 0 0 0 0 0 0 0 0 0 0 0 0 0 0 0 0 0 0 0 0 0 0 0 0 0 0 0 0 0 0 0 0 0 0 0 0 0 0 0 0 0 0 0 0 0 0 0 0 0 0 0 0 0 0 0 0 0 0 0 0 0 0 0 0 0 0 0 0 0 0 0 0 0 0 0 0 0 0 0 0 0 0 0
0 0 0 0 0 0 0 0 0 0 0 0 0 0 0 0 0 0 0 0 0 0 0 0 0 0 0 0 0 0 0 0 0 0 0 0 0 0 0 0 0 0 0 0 0 0 0 0 0 0 0 0 0 0 0 0 0 0 0 0 0 0 0 0 0 0 0 0 0 0 0 0 0 0 0 0 0 0 0 0 0 0 0 0 0
0 0 0 0 0 0 0 0 0 0 0 0 0 0 0 0 0 0 0 0 0 0 0 0 0 0 0 0 0 0 0 0 0 0 0 0 0 0 0 0 0 0 0 0 0 0 0 0 0 0 0 0 0 0 0 0 0 0 0 0 0 0 0 0 0 0 0 0 0 0 0 0 0 0 0 0 0 0 0 0 0 0 0 0 0
0 0 0 0 0 0 0 0 0 0 0 0 0 0 0 0 0 0 0 0 0 0 0 0 0 0 0 0 0 0 0 0 0 0 0 0 0 0 0 0 0 0 0 0 0 0 0 0 0 0 0 0 0 0 0 0 0 0 0 0 0 0 0 0 0 0 0 0 0 0 0 0 0 0 0 0 0 0 0 0 0 0 0 0 0
0 0 0 0 0 0 0 0 0 0 0 0 0 0 0 0 0 0 0 0 0 0 0 0 0 0 0 0 0 0 0 0 0 0 0 0 0 0 0 0 0 0 0 0 0 0 0 0 0 0 0 0 0 0 0 0 0 0 0 0 0 0 0 0 0 0 0 0 0 0 0 0 0 0 0 0 0 0 0 0 0 0 0 0 0
0 0 0 251 15 0 0 0 3 2 2 2 0 0 0 0 0 0 0 0 0 0 0 0 0 0 0 0 0 0 0 3 0 0 0 0 0 0 0 0 0 0 0 0 0 0 0 0 0 0 0 0 0 0 0 0 0 0 0 0 0 0 0 0 0 0 0 0 0 0 0 0 0 0 0 0 0 0 0 0 0 0 0 0 0
56 60 226 241 0 0 0 0 0 144 166 152 0 0 64 99 0 0 0 0 0 24 102 0 0 0 0 0 0 0 0 0 0 0 0 0 0 0 0 0 0 0 0 0 0 0 0 0 0 0 0 0 0 0 0 0 0 0 0 0 0 0 0 0 0 0 0 0 0 0 0 0 0 0 0 0 0 0 0 0 0 0 0 0 0
113 72 217 50 62 11 0 0 64 245 102 0 0 0 0 0 0 0 0 0 0 0 0 0 134 89 90 36 0 0 0 0 0 0 0 0 0 0 0 0 0 0 0 0 0 0 0 0 0 0 0 0 0 0 0 0 0 0 0 0 0 0 0 0 0 0 0 0 0 0 0 0 0 0 0 0 0 0 0 0 0 0 0 0 0
155 114 58 172 38 31 147 201 236 107 0 0 25 4 0 0 0 0 0 0 0 177 0 0 0 101 135 36 0 0 0 0 0 0 0 0 0 0 0 0 0 0 0 0 0 0 0 0 0 0 0 0 0 0 0 0 0 0 0 0 0 0 0 0 0 0 0 0 0 0 0 0 0 0 0 0 0 0 0 0 0 0 0 0 0
70 41 10 0 2 262 256 41 138 222 0 0 0 0 0 0 0 0 0 0 105 193 162 0 38 98 0 0 0 0 0 0 0 0 0 0 0 0 0 0 0 0 0 0 0 0 0 0 0 0 0 0 0 0 0 0 0 0 0 0 0 0 0 0 0 0 0 0 0 0 0 0 0 0 0 0 0 0 0 0 0 0 0 0 0
34 21 78 59 17 0 0 0 0 0 0 5 17 4 0 0 0 0 0 0 0 182 128 0 0 136 144 158 61 0 0 0 0 0 0 0 0 0 0 0 0 0 0 0 0 0 0 0 0 0 0 0 0 0 0 0 0 0 0 0 0 0 0 0 0 0 0 0 0 0 0 0 0 0 0 0 0 0 0 0 0 0 0 0 0
304 438 337 223 209 234 231 180 173 162 150 134 149 161 174 171 173 161 139 168 186 191 243 215 180 168 166 21 166 0 43 59 0 0 0 0 0 0 0 0 0 0 0 0 0 0 0 0 0 0 0 0 0 0 0 0 0 0 0 0 0 0 0 0 0 0 0 0 0 0 0 0 0 0 0 0 0 0 0 0 0 0 0 0 0
688 613 456 399 430 446 424 384 374 305 269 254 238 248 263 293 304 327 368 373 348 343 342 293 240 180 87 165 70 0 0 0 27 5 0 0 0 0 0 0 0 0 0 0 0 0 0 0 0 0 0 0 0 0 0 0 0 0 0 0 0 0 0 0 0 0 0 0 0 0 0 0 0 0 0 0 0 0 0 0 0 0 0 0 0
206 321 270 216 337 436 469 412 361 348 376 408 436 489 516 513 483 420 431 430 490 515 455 356 259 182 136 132 103 10 96 34 2 0 0 0 0 0 0 0 0 0 0 0 0 0 0 0 0 0 0 0 0 0 0 0 0 0 0 0 0 0 0 0 0 0 0 0 0 0 0 0 0 0 0 0 0 0 0 0 0 0 0 0 0
219 300 304 318 319 277 314 318 396 449 449 415 302 174 206 342 494 566 656 718 639 522 456 422 318 231 204 81 52 26 97 4 15 0 1 1 0 0 0 0 0 0 0 0 0 0 0 0 0 0 0 0 0 0 0 0 0 0 0 0 0 0 0 0 0 0 0 0 0 0 0 0 0 0 0 0 0 0 0 0 0 0 0 0 0
0 0 0 150 138 274 342 409 291 168 106 13 0 0 0 27 134 260 367 474 559 527 450 335 168 0 127 16 102 26 48 59 2 2 2 0 0 0 0 0 0 0 2 3 1 0 0 0 0 0 0 0 0 0 0 0 0 0 0 0 0 0 0 0 0 0 0 0 0 0 0 0 0 0 0 0 0 0 0 0 0 0 0 0 0
0 0 0 0 0 68 69 50 0 0 0 0 0 0 0 0 3 126 248 367 463 479 450 311 246 58 3 0 0 6 2 2 1 0 0 0 0 0 0 0 0 0 12 10 4 0 0 0 0 0 0 0 0 0 0 0 0 0 0 0 0 0 0 0 0 0 0 0 0 0 0 0 0 0 0 0 0 0 0 0 0 0 0 0 0
0 0 0 0 0 0 0 50 175 187 161 43 0 0 0 0 0 0 64 113 188 235 246 212 176 75 1 0 0 38 14 11 2 0 2 0 0 0 2 0 0 0 0 2 2 0 0 0 0 0 0 0 0 0 0 0 0 0 0 0 0 0 0 0 0 0 0 0 0 0 0 0 0 0 0 0 0 0 0 10 12 7 0 0 1
0 0 0 0 0 68 179 225 235 235 228 112 0 0 0 0 0 0 0 0 0 0 21 80 91 23 19 13 10 5 9 3 2 1 3 7 3 2 2 5 4 0 6 8 4 0 0 0 0 0 0 0 0 0 0 0 0 0 0 0 0 0 0 0 0 0 0 0 0 0 0 0 0 0 0 0 0 0 28 42 34 23 10 1 0
0 0 0 0 94 171 187 188 208 188 177 77 0 0 0 0 0 0 0 123 51 0 0 0 23 18 0 4 33 25 21 13 4 4 13 6 2 2 6 5 9 18 14 7 0 0 0 0 0 0 0 0 0 0 0 0 0 0 0 0 0 0 0 0 0 0 0 0 0 0 0 0 0 0 0 0 0 0 9 44 44 41 24 8 0
Wind_Speed
22 23 22 21 19 18 15 12 16 14 15 16 17 17 18 18 17 17 18 19 18 18 20 21 21 21 22 24 24 23 25 26 27 30 29 29 30 31 31 31 30 30 31 32 33 33 32 31 29 28 26 25 nan nan nan nan 21 22 22 23 23 nan nan nan nan nan nan nan nan nan nan nan nan nan nan nan nan nan nan nan nan nan nan nan nan
19 25 24 19 18 18 17 16 16 15 14 16 15 17 17 17 18 17 18 20 21 21 25 25 25 nan 27 28 26 24 24 23 24 26 27 29 30 31 31 30 28 28 29 29 31 33 33 33 31 29 27 25 25 nan nan nan nan 22 22 25 25 nan nan nan nan nan nan nan nan nan nan nan nan nan nan nan nan nan nan nan nan nan nan nan nan
17 20 18 17 18 15 18 15 9 7 8 11 14 15 16 16 16 16 18 21 22 24 28 27 27 28 28 29 nan 27 27 25 24 24 25 27 29 32 32 30 28 27 26 27 28 31 33 33 32 31 29 27 25 24 25 nan nan nan 24 26 27 26 nan nan nan nan nan nan nan nan nan nan nan nan nan nan nan nan nan nan nan nan nan nan nan
16 16 14 14 16 13 15 11 7 8 8 9 10 13 15 16 18 20 22 21 22 23 23 25 26 28 29 30 nan nan 29 28 27 25 24 24 26 29 32 32 28 26 25 24 26 28 31 33 33 32 31 28 26 25 25 24 23 nan 26 28 28 27 26 nan nan nan nan nan nan nan nan nan nan nan nan nan nan nan nan nan nan nan nan nan nan
14 12 15 17 17 14 13 14 15 15 10 8 8 9 12 16 19 22 25 24 24 22 21 23 26 27 28 29 31 32 29 29 28 26 24 23 22 26 30 32 31 27 24 23 23 26 27 30 31 32 31 31 29 27 26 25 24 25 28 29 28 28 27 27 nan nan nan nan nan nan nan nan nan nan nan nan nan nan nan nan nan nan nan nan nan
10 11 13 13 16 16 15 16 17 15 11 9 9 9 12 12 12 17 21 23 24 21 22 24 24 25 28 28 32 32 31 29 28 27 25 23 23 24 28 33 34 32 29 25 23 24 25 27 28 30 31 31 31 30 28 26 26 26 26 29 30 28 29 28 27 nan nan nan nan nan nan nan nan nan nan nan nan nan nan nan nan nan nan nan nan
9 10 10 9 11 14 14 15 16 15 13 11 12 10 12 12 11 14 14 18 20 20 21 22 23 26 27 28 32 32 33 31 28 28 27 24 22 22 26 30 35 35 32 30 27 24 24 25 27 28 28 30 31 30 29 28 27 27 27 28 30 30 30 29 28 27 nan nan nan nan nan nan nan nan nan nan nan nan nan nan nan nan nan nan nan
18 11 8 9 8 12 13 13 14 13 12 12 11 12 11 10 8 10 12 13 16 17 18 20 22 24 24 27 28 29 32 30 29 27 25 24 23 23 23 28 34 35 32 31 29 27 23 23 25 27 27 29 30 29 29 29 28 27 27 27 28 30 30 29 29 30 28 28 nan nan nan nan nan nan nan nan nan nan nan nan nan nan nan nan nan
19 17 10 8 12 14 13 13 13 13 12 12 12 10 11 11 7 4 8 10 12 14 nan 16 19 22 24 25 25 25 26 26 24 24 23 nan 22 23 25 27 31 33 33 31 29 28 24 21 23 24 26 29 29 28 27 28 28 28 28 27 28 29 30 30 30 29 31 30 nan nan nan nan nan nan nan nan nan nan nan nan nan nan nan nan nan
12 13 11 7 11 14 14 12 13 13 12 12 13 12 11 11 10 5 6 nan nan nan 13 15 17 20 22 22 22 23 23 23 22 22 23 nan 22 22 22 25 29 31 33 32 29 28 27 24 21 23 25 27 28 29 26 27 27 28 28 27 27 29 30 31 31 30 30 32 31 31 nan nan nan nan nan nan nan nan nan nan nan nan nan nan nan
10 9 8 8 10 11 14 13 13 13 13 13 13 14 13 10 11 9 7 7 10 11 13 14 15 15 16 17 18 17 18 21 20 20 20 nan nan 20 19 21 24 29 32 32 32 30 29 29 29 28 27 24 27 28 27 26 26 26 28 28 28 29 30 31 31 31 30 30 31 31 nan nan nan nan nan nan nan nan nan nan nan nan nan nan nan
12 10 10 10 10 11 13 14 14 15 15 15 14 15 15 14 11 11 11 10 9 10 12 13 11 11 10 10 12 13 15 16 17 17 nan nan nan nan nan 19 20 22 26 30 32 33 33 33 32 31 31 28 26 27 27 27 28 28 26 26 26 28 30 29 29 30 30 29 28 30 30 nan nan nan nan nan nan nan nan nan nan nan nan nan nan
15 14 14 13 13 13 13 13 16 16 16 15 15 17 16 15 13 11 12 12 10 10 10 13 12 7 7 9 11 12 13 14 16 17 nan nan nan nan nan nan 20 21 22 25 31 33 36 35 35 34 34 33 32 28 26 27 28 28 25 23 21 22 28 29 28 28 29 28 27 28 31 31 nan nan nan nan nan nan nan nan nan nan nan nan nan
16 16 16 16 16 15 14 15 17 18 18 17 17 17 17 17 15 13 12 13 13 12 11 15 11 9 11 11 12 13 14 16 nan nan nan nan nan nan nan nan nan 21 21 24 28 33 36 41 42 38 36 37 36 35 32 29 28 26 26 23 19 18 22 26 27 26 27 27 26 26 30 30 nan nan nan nan nan nan nan nan nan nan nan nan nan
15 15 16 15 16 16 15 17 18 19 19 18 18 17 17 18 16 16 15 16 14 15 11 14 14 15 11 15 14 16 16 18 18 nan nan nan nan nan nan nan nan nan 21 22 26 28 33 40 39 39 36 37 39 38 36 33 28 25 25 23 20 17 18 21 23 25 25 25 25 25 27 28 28 nan nan nan nan nan nan nan nan nan nan nan nan
nan 15 15 15 16 16 16 17 17 17 19 19 17 17 17 17 17 16 17 19 14 15 13 13 13 18 14 14 15 18 nan nan nan nan nan nan nan nan nan nan nan nan nan 22 24 26 29 32 30 33 37 39 45 40 38 36 29 24 24 23 20 19 17 16 19 19 19 22 24 24 26 27 27 27 27 nan nan nan nan nan nan nan nan nan nan
nan nan nan 15 15 16 17 17 17 18 19 19 17 16 16 16 18 18 17 18 17 19 18 13 11 17 16 17 18 19 18 18 nan nan nan nan nan nan 22 nan nan nan nan 21 23 25 27 30 28 31 33 37 42 41 36 34 33 31 27 23 20 19 18 16 16 15 19 17 17 21 25 26 26 26 27 27 nan nan nan nan nan nan nan nan nan
nan nan nan 16 17 16 16 17 17 18 18 18 19 17 16 15 16 17 17 19 22 21 20 15 17 21 17 17 18 nan 20 20 nan nan nan 22 nan nan nan nan nan nan nan nan nan 23 26 28 30 28 29 31 33 36 36 34 33 33 32 29 23 20 17 15 13 14 15 14 16 15 18 24 24 24 25 26 26 nan nan nan nan nan nan nan nan
nan nan nan nan nan 18 19 19 19 19 19 19 17 16 16 16 17 17 18 21 20 21 20 20 23 18 18 21 23 23 23 22 21 20 nan nan 21 20 20 nan 22 nan 21 20 21 23 24 26 27 27 26 28 28 31 34 34 33 31 28 28 27 24 19 15 15 16 14 14 16 18 16 17 23 23 23 24 24 25 nan nan nan nan nan nan nan
nan nan nan nan nan nan nan nan nan 19 20 nan 19 18 21 19 16 18 20 21 21 23 22 21 23 20 21 23 24 22 24 24 24 22 nan nan nan nan 21 nan 21 19 19 18 18 19 20 22 23 23 25 27 26 28 31 38 38 39 39 31 28 27 23 19 18 17 16 15 19 18 15 18 20 23 23 22 23 24 25 25 nan nan nan nan nan
nan nan nan nan nan nan nan nan nan nan nan nan nan nan nan nan 20 22 23 23 23 23 24 23 25 23 23 25 25 25 24 24 23 24 22 21 nan nan nan nan nan nan nan nan nan nan 16 17 18 20 23 23 25 27 31 32 31 37 39 37 32 26 26 25 22 22 20 19 18 18 17 20 21 22 23 22 23 23 25 25 24 23 nan nan nan
nan nan nan nan nan nan nan nan nan nan nan nan nan nan nan nan nan 21 23 25 23 25 26 26 26 25 25 24 nan nan nan nan nan nan 23 21 nan nan nan nan nan nan nan nan nan nan nan nan 16 16 19 22 22 nan nan 28 30 34 36 31 28 24 27 31 28 27 24 22 22 21 21 22 26 23 20 21 21 21 23 26 26 25 23 23 24
nan nan nan nan nan nan nan nan nan nan nan nan nan nan nan nan nan nan nan nan nan nan nan nan nan nan nan nan nan nan nan nan nan nan nan nan nan nan nan nan nan nan nan nan nan nan nan nan nan 18 19 19 21 25 25 24 23 25 28 nan 25 20 23 33 35 31 30 24 26 32 29 28 27 24 22 22 19 20 22 24 24 24 24 25 25
nan nan nan nan nan nan nan nan nan nan nan nan nan nan nan nan nan nan nan nan nan nan nan nan nan nan nan nan nan nan nan nan nan nan nan nan nan nan nan nan nan nan nan nan nan nan nan nan nan nan nan nan nan nan 25 23 23 20 27 30 30 28 28 35 36 38 33 35 30 30 28 27 26 28 26 26 23 20 19 21 24 25 27 27 27
nan nan nan nan nan nan nan nan nan nan nan nan nan nan nan nan nan nan nan nan nan nan nan nan nan nan nan nan nan nan nan nan nan nan nan nan nan nan nan nan nan nan nan nan nan nan nan nan nan nan nan nan nan nan nan 33 33 39 39 38 40 36 29 33 39 40 39 37 32 38 36 32 31 31 26 27 26 20 19 22 23 27 27 28 28
nan nan nan nan nan nan nan nan nan nan nan nan nan nan nan nan nan nan nan nan nan nan nan nan nan nan nan nan nan nan nan nan nan nan nan nan nan nan nan nan nan nan nan nan nan nan nan nan nan nan nan nan nan nan nan nan 31 38 40 37 nan 42 42 45 45 45 44 42 38 41 40 38 35 35 34 35 33 28 29 29 28 30 33 30 31
nan nan nan nan nan nan nan nan nan nan nan nan nan nan nan nan nan nan nan nan nan nan nan nan nan nan nan nan nan nan nan nan nan nan nan nan nan nan nan nan nan nan nan nan nan nan nan nan nan nan nan nan nan nan 24 24 25 30 34 nan 38 43 nan nan nan nan 42 42 40 40 41 40 38 36 37 40 38 34 33 36 31 30 32 30 31
nan nan nan nan nan nan nan nan nan nan nan nan nan nan nan nan nan nan nan nan nan nan nan nan nan nan nan nan nan nan nan nan nan nan nan nan nan nan nan nan nan nan nan nan nan nan nan nan nan nan nan nan nan 23 23 24 23 25 27 nan nan nan nan nan nan nan nan 38 38 38 39 39 38 37 nan 38 39 37 38 41 38 33 31 29 31
nan nan nan nan nan nan nan nan nan nan nan nan nan nan nan nan nan nan nan nan nan nan nan nan nan nan nan nan nan nan nan nan nan nan nan nan nan nan nan nan nan nan nan nan nan nan nan nan nan nan nan nan nan 20 21 nan nan nan nan nan nan nan nan nan nan nan nan nan nan 36 37 37 38 nan nan nan nan nan nan 37 39 37 32 30 32
nan nan nan nan nan nan nan nan nan nan nan nan nan nan nan nan nan nan nan nan nan nan nan nan nan nan nan nan nan nan nan nan nan nan nan nan nan nan nan nan nan nan nan nan nan nan nan nan nan nan nan nan nan nan nan nan nan nan nan nan nan nan nan nan nan nan nan nan nan nan 33 34 35 nan nan nan nan nan nan nan nan nan 32 31 30
nan nan nan nan nan nan nan nan nan nan nan nan nan nan nan nan nan nan nan nan nan nan nan nan nan nan nan nan nan nan nan nan nan nan nan nan nan nan nan nan nan nan nan nan nan nan nan nan nan nan nan nan nan nan nan nan nan nan nan nan nan nan nan nan nan nan nan nan nan nan nan nan 29 nan nan nan nan nan nan nan nan nan nan nan 27
nan nan nan nan nan nan nan nan nan nan nan nan nan nan nan nan nan nan nan nan nan nan nan nan nan nan nan nan nan nan nan nan nan nan nan nan nan nan nan nan nan nan nan nan nan nan nan nan nan nan nan nan nan nan nan nan nan nan nan nan nan nan nan nan nan nan nan nan nan nan nan nan nan nan nan nan nan nan nan nan nan nan nan nan nan
nan nan nan nan nan nan nan nan nan nan nan nan nan nan nan nan nan nan nan nan nan nan nan nan nan nan nan nan nan nan nan nan nan nan nan nan nan nan nan nan nan nan nan nan nan nan nan nan nan nan nan nan nan nan nan nan nan nan nan nan nan nan nan nan nan nan nan nan nan nan nan nan nan nan nan nan nan nan nan nan nan nan nan nan nan
nan nan nan nan nan nan nan nan nan nan nan nan nan nan nan nan nan nan nan nan nan nan nan nan nan nan nan nan nan nan nan nan nan nan nan nan nan nan nan nan nan nan nan nan nan nan nan nan nan nan nan nan nan nan nan nan nan nan nan nan nan nan nan nan nan nan nan nan nan nan nan nan nan nan nan nan nan nan nan nan nan nan nan nan nan
nan nan nan nan nan nan nan nan nan nan nan nan nan nan nan nan nan nan nan nan nan nan nan nan nan nan nan nan nan nan nan nan nan nan nan nan nan nan nan nan nan nan nan nan nan nan nan nan nan nan nan nan nan nan nan nan nan nan nan nan nan nan nan nan nan nan nan nan nan nan nan nan nan nan nan nan nan nan nan nan nan nan nan nan nan
nan nan nan nan nan nan nan nan nan nan nan nan nan nan nan nan nan nan nan nan nan nan nan nan nan nan nan nan nan nan nan nan nan nan nan nan nan nan nan nan nan nan nan nan nan nan nan nan nan nan nan nan nan nan nan nan nan nan nan nan nan nan nan nan nan nan nan nan nan nan nan nan nan nan nan nan nan nan nan nan nan nan nan nan nan
nan nan nan 28 nan nan nan nan nan nan nan nan nan nan nan nan nan nan nan nan nan nan nan nan nan nan nan nan nan nan nan nan nan nan nan nan nan nan nan nan nan nan nan nan nan nan nan nan nan nan nan nan nan nan nan nan nan nan nan nan nan nan nan nan nan nan nan nan nan nan nan nan nan nan nan nan nan nan nan nan nan nan nan nan nan
nan nan 32 30 nan nan nan nan nan 31 31 29 nan nan nan nan nan nan nan nan nan nan 23 nan nan nan nan nan nan nan nan nan nan nan nan nan nan nan nan nan nan nan nan nan nan nan nan nan nan nan nan nan nan nan nan nan nan nan nan nan nan nan nan nan nan nan nan nan nan nan nan nan nan nan nan nan nan nan nan nan nan nan nan nan nan
30 nan 27 nan nan nan nan nan nan 31 32 nan nan nan nan nan nan nan nan nan nan nan nan nan 25 nan nan nan nan nan nan nan nan nan nan nan nan nan nan nan nan nan nan nan nan nan nan nan nan nan nan nan nan nan nan nan nan nan nan nan nan nan nan nan nan nan nan nan nan nan nan nan nan nan nan nan nan nan nan nan nan nan nan nan nan
28 32 nan 23 nan nan 30 30 29 30 nan nan nan nan nan nan nan nan nan nan nan 23 nan nan nan 27 28 nan nan nan nan nan nan nan nan nan nan nan nan nan nan nan nan nan nan nan nan nan nan nan nan nan nan nan nan nan nan nan nan nan nan nan nan nan nan nan nan nan nan nan nan nan nan nan nan nan nan nan nan nan nan nan nan nan nan
nan nan nan nan nan 26 28 nan 30 32 nan nan nan nan nan nan nan nan nan nan 27 27 27 nan nan nan nan nan nan nan nan nan nan nan nan nan nan nan nan nan nan nan nan nan nan nan nan nan nan nan nan nan nan nan nan nan nan nan nan nan nan nan nan nan nan nan nan nan nan nan nan nan nan nan nan nan nan nan nan nan nan nan nan nan nan
nan nan nan nan nan nan nan nan nan nan nan nan nan nan nan nan nan nan nan nan nan 31 32 nan nan 32 34 35 nan nan nan nan nan nan nan nan nan nan nan nan nan nan nan nan nan nan nan nan nan nan nan nan nan nan nan nan nan nan nan nan nan nan nan nan nan nan nan nan nan nan nan nan nan nan nan nan nan nan nan nan nan nan nan nan nan
42 40 39 38 37 38 39 38 36 36 37 38 36 35 33 31 35 35 35 33 34 34 34 37 38 39 38 nan 39 nan nan nan nan nan nan nan nan nan nan nan nan nan nan nan nan nan nan nan nan nan nan nan nan nan nan nan nan nan nan nan nan nan nan nan nan nan nan nan nan nan nan nan nan nan nan nan nan nan nan nan nan nan nan nan nan
44 44 45 44 43 42 42 41 39 39 40 43 44 43 40 37 36 36 35 35 35 36 36 39 41 42 nan 40 nan nan nan nan nan nan nan nan nan nan nan nan nan nan nan nan nan nan nan nan nan nan nan nan nan nan nan nan nan nan nan nan nan nan nan nan nan nan nan nan nan nan nan nan nan nan nan nan nan nan nan nan nan nan nan nan nan
46 45 44 44 43 44 45 45 45 46 47 47 46 45 42 40 39 41 38 37 37 38 42 46 45 43 42 43 41 nan nan nan nan nan nan nan nan nan nan nan nan nan nan nan nan nan nan nan nan nan nan nan nan nan nan nan nan nan nan nan nan nan nan nan nan nan nan nan nan nan nan nan nan nan nan nan nan nan nan nan nan nan nan nan nan
46 45 45 44 43 44 45 47 50 52 51 48 46 45 42 38 36 41 42 41 42 46 48 46 46 48 49 nan nan nan nan nan nan nan nan nan nan nan nan nan nan nan nan nan nan nan nan nan nan nan nan nan nan nan nan nan nan nan nan nan nan nan nan nan nan nan nan nan nan nan nan nan nan nan nan nan nan nan nan nan nan nan nan nan nan
nan nan nan 49 47 48 48 50 51 51 48 nan nan nan nan nan 49 47 48 49 50 50 50 50 50 nan 49 nan 48 nan nan nan nan nan nan nan nan nan nan nan nan nan nan nan nan nan nan nan nan nan nan nan nan nan nan nan nan nan nan nan nan nan nan nan nan nan nan nan nan nan nan nan nan nan nan nan nan nan nan nan nan nan nan nan nan
nan nan nan nan nan nan nan nan nan nan nan nan nan nan nan nan nan 55 56 55 56 55 54 54 54 nan nan nan nan nan nan nan nan nan nan nan nan nan nan nan nan nan nan nan nan nan nan nan nan nan nan nan nan nan nan nan nan nan nan nan nan nan nan nan nan nan nan nan nan nan nan nan nan nan nan nan nan nan nan nan nan nan nan nan nan
nan nan nan nan nan nan nan nan 53 50 49 nan nan nan nan nan nan nan nan 56 56 56 54 53 54 nan nan nan nan nan nan nan nan nan nan nan nan nan nan nan nan nan nan nan nan nan nan nan nan nan nan nan nan nan nan nan nan nan nan nan nan nan nan nan nan nan nan nan nan nan nan nan nan nan nan nan nan nan nan nan nan nan nan nan nan
nan nan nan nan nan nan 56 54 53 54 50 49 nan nan nan nan nan nan nan nan nan nan nan nan nan nan nan nan nan nan nan nan nan nan nan nan nan nan nan nan nan nan nan nan nan nan nan nan nan nan nan nan nan nan nan nan nan nan nan nan nan nan nan nan nan nan nan nan nan nan nan nan nan nan nan nan nan nan nan nan nan nan nan nan nan
nan nan nan nan nan 55 55 56 56 58 54 nan nan nan nan nan nan nan nan 56 nan nan nan nan nan nan nan nan nan nan nan nan nan nan nan nan nan nan nan nan nan nan nan nan nan nan nan nan nan nan nan nan nan nan nan nan nan nan nan nan nan nan nan nan nan nan nan nan nan nan nan nan nan nan nan nan nan nan nan nan nan nan nan nan nan
Wind_Direction
291 288 278 265 267 276 279 284 286 288 286 278 267 261 257 253 250 247 249 248 245 240 241 248 251 247 241 243 247 256 260 252 247 246 243 241 244 245 252 253 255 256 257 258 258 258 256 256 255 256 256 256 nan nan nan nan 258 265 265 262 258 nan nan nan nan nan nan nan nan nan nan nan nan nan nan nan nan nan nan nan nan nan nan nan nan
296 295 290 285 278 281 280 284 286 290 291 287 273 263 259 249 243 241 244 246 248 251 247 246 245 nan 245 246 245 248 250 252 256 260 257 249 244 244 252 252 254 256 257 259 262 260 259 258 256 256 256 256 256 nan nan nan nan 262 267 268 264 nan nan nan nan nan nan nan nan nan nan nan nan nan nan nan nan nan nan nan nan nan nan nan nan
305 306 299 292 283 289 291 287 296 321 316 291 268 263 262 261 249 243 242 247 248 247 247 247 244 242 244 247 nan 247 249 250 253 253 254 252 247 245 246 250 249 254 257 259 261 262 261 260 258 256 257 256 255 256 258 nan nan nan 267 269 267 264 nan nan nan nan nan nan nan nan nan nan nan nan nan nan nan nan nan nan nan nan nan nan nan
307 305 299 289 286 286 282 284 304 332 328 301 277 265 264 259 253 250 250 252 250 249 251 254 251 249 249 251 nan nan 248 249 251 255 253 253 247 244 245 244 245 249 254 255 256 258 261 261 260 259 258 257 256 255 257 259 258 nan 265 269 268 267 265 nan nan nan nan nan nan nan nan nan nan nan nan nan nan nan nan nan nan nan nan nan nan
292 297 282 284 280 277 290 304 312 317 310 303 284 275 274 263 249 250 252 253 253 255 258 260 261 256 253 252 253 252 248 247 249 252 255 253 251 243 240 241 239 244 249 251 250 251 257 260 260 260 259 258 258 256 256 257 258 259 264 269 267 267 266 264 nan nan nan nan nan nan nan nan nan nan nan nan nan nan nan nan nan nan nan nan nan
296 271 262 278 278 274 288 294 300 304 301 299 292 297 294 282 270 258 251 254 256 258 261 261 261 259 253 251 254 256 254 246 243 245 251 253 247 244 239 234 233 236 237 239 245 245 250 254 257 257 257 259 259 259 258 257 258 260 263 269 269 269 268 267 264 nan nan nan nan nan nan nan nan nan nan nan nan nan nan nan nan nan nan nan nan
273 272 253 254 265 261 264 277 288 297 302 308 306 304 307 302 296 278 266 259 258 252 253 259 263 263 259 254 255 257 254 247 239 240 240 242 249 248 242 237 233 232 234 235 237 239 239 245 249 254 253 253 259 261 261 259 261 262 264 269 272 271 270 271 269 266 nan nan nan nan nan nan nan nan nan nan nan nan nan nan nan nan nan nan nan
290 282 283 284 280 261 253 261 273 283 298 301 302 305 306 299 293 299 285 268 267 259 255 260 260 259 255 253 256 258 254 245 240 238 238 239 237 241 243 239 236 234 234 236 238 240 239 240 244 248 253 251 255 259 261 263 263 265 267 270 272 273 274 274 273 272 269 267 nan nan nan nan nan nan nan nan nan nan nan nan nan nan nan nan nan
304 305 302 300 281 270 261 263 270 281 290 296 296 300 304 302 295 279 288 291 279 277 nan 267 266 264 258 253 252 253 248 241 239 241 240 nan 237 242 242 239 236 235 236 239 241 243 243 243 244 245 250 254 253 256 259 263 265 266 269 271 275 274 275 275 276 276 277 275 nan nan nan nan nan nan nan nan nan nan nan nan nan nan nan nan nan
285 285 282 280 277 278 272 270 277 281 286 288 290 290 286 300 303 291 296 nan nan nan 280 268 269 269 260 252 248 248 242 238 240 241 240 nan 242 241 238 235 235 235 235 239 243 246 246 247 249 247 247 251 255 256 256 257 263 266 268 272 275 276 275 276 278 278 278 281 282 281 nan nan nan nan nan nan nan nan nan nan nan nan nan nan nan
288 292 299 283 278 273 276 274 271 277 283 285 285 282 284 285 299 298 289 291 299 293 283 273 273 275 261 243 241 246 238 232 238 244 241 nan nan 246 240 235 233 234 234 236 240 243 246 247 248 249 249 252 255 256 256 253 257 263 266 269 271 275 276 277 278 280 279 282 284 284 nan nan nan nan nan nan nan nan nan nan nan nan nan nan nan
305 309 298 291 275 265 271 274 275 281 284 285 285 284 284 282 287 294 293 284 279 278 275 268 265 283 282 242 232 241 237 231 236 244 nan nan nan nan nan 244 242 237 234 236 240 242 244 246 249 249 248 249 252 254 256 256 252 254 264 267 270 274 279 279 280 282 283 283 283 285 284 nan nan nan nan nan nan nan nan nan nan nan nan nan nan
308 306 301 293 277 269 270 271 270 271 273 278 279 278 279 284 289 283 289 285 275 270 271 270 277 276 271 252 232 235 243 242 245 252 nan nan nan nan nan nan 243 242 236 235 241 243 243 245 248 251 252 252 252 251 253 254 256 253 256 263 269 278 283 284 285 286 287 285 286 287 286 287 nan nan nan nan nan nan nan nan nan nan nan nan nan
291 289 290 287 287 287 279 270 264 265 267 268 269 271 272 275 278 273 272 278 274 270 262 259 249 263 271 259 245 249 255 252 nan nan nan nan nan nan nan nan nan 244 236 237 240 243 245 244 239 242 249 253 253 254 254 253 253 254 253 251 255 260 274 285 288 289 290 289 289 288 286 290 nan nan nan nan nan nan nan nan nan nan nan nan nan
280 282 281 278 278 278 278 273 270 273 271 268 268 269 271 274 274 279 274 261 267 265 242 254 263 256 259 259 256 257 250 249 251 nan nan nan nan nan nan nan nan nan 247 244 242 241 242 248 247 245 244 246 249 254 255 255 257 261 257 252 248 247 255 269 282 287 290 292 293 292 288 291 290 nan nan nan nan nan nan nan nan nan nan nan nan
nan 276 275 280 282 279 270 268 271 272 275 276 273 271 269 267 266 268 269 278 272 272 279 259 262 267 254 254 256 261 nan nan nan nan nan nan nan nan nan nan nan nan nan 247 244 244 248 256 254 252 248 246 243 237 245 251 256 259 261 256 252 249 246 256 263 273 285 292 295 294 287 289 291 292 292 nan nan nan nan nan nan nan nan nan nan
nan nan nan 274 277 277 278 274 273 270 271 274 276 272 269 267 268 270 271 269 271 263 261 261 256 251 255 251 246 251 258 255 nan nan nan nan nan nan 248 nan nan nan nan 237 244 243 242 250 253 253 252 248 246 244 241 242 248 251 256 259 257 256 255 252 252 265 274 281 287 294 288 288 289 291 290 291 nan nan nan nan nan nan nan nan nan
nan nan nan 268 269 271 271 274 276 277 277 273 270 268 267 269 273 270 270 263 267 263 268 272 261 246 244 252 251 nan 255 254 nan nan nan 256 nan nan nan nan nan nan nan nan nan 241 247 249 253 251 251 252 250 247 243 242 245 249 250 254 261 259 258 261 265 261 262 276 276 279 287 289 289 290 290 291 292 nan nan nan nan nan nan nan nan
nan nan nan nan nan 268 272 273 275 277 281 282 281 282 279 267 263 265 270 270 271 267 274 268 260 251 249 247 244 245 254 256 256 258 nan nan 252 252 244 nan 235 nan 229 230 231 233 237 243 248 255 257 254 245 240 241 242 241 239 247 257 262 262 260 257 260 261 261 264 272 275 278 285 287 288 290 292 294 293 nan nan nan nan nan nan nan
nan nan nan nan nan nan nan nan nan 271 274 nan 277 274 270 266 263 260 262 263 267 270 266 262 263 252 244 250 246 243 247 250 257 261 nan nan nan nan 250 nan 234 234 233 229 233 238 236 238 245 247 248 249 252 252 244 238 235 235 235 234 247 257 259 259 256 257 256 259 266 270 275 277 283 281 285 287 289 292 293 296 nan nan nan nan nan
nan nan nan nan nan nan nan nan nan nan nan nan nan nan nan nan 265 259 259 255 255 259 259 256 259 260 257 251 254 251 251 251 254 256 259 256 nan nan nan nan nan nan nan nan nan nan 233 233 239 245 245 244 244 243 243 244 239 244 244 238 232 239 255 256 254 254 254 252 258 269 269 263 267 271 277 284 285 287 291 294 297 302 nan nan nan
nan nan nan nan nan nan nan nan nan nan nan nan nan nan nan nan nan 264 263 259 253 254 258 260 260 258 258 261 nan nan nan nan nan nan 254 256 nan nan nan nan nan nan nan nan nan nan nan nan 232 237 242 244 234 nan nan 239 239 240 242 246 246 243 251 254 249 250 254 255 256 261 264 268 271 274 274 274 282 286 287 291 294 299 302 305 305
nan nan nan nan nan nan nan nan nan nan nan nan nan nan nan nan nan nan nan nan nan nan nan nan nan nan nan nan nan nan nan nan nan nan nan nan nan nan nan nan nan nan nan nan nan nan nan nan nan 234 239 242 234 233 238 243 248 245 244 nan 244 249 262 258 250 249 249 253 253 248 242 246 256 265 270 271 273 282 286 287 291 294 297 298 300
nan nan nan nan nan nan nan nan nan nan nan nan nan nan nan nan nan nan nan nan nan nan nan nan nan nan nan nan nan nan nan nan nan nan nan nan nan nan nan nan nan nan nan nan nan nan nan nan nan nan nan nan nan nan 235 238 241 236 238 238 234 230 244 253 252 248 250 246 251 261 259 253 255 258 263 272 271 275 284 287 291 296 295 297 296
nan nan nan nan nan nan nan nan nan nan nan nan nan nan nan nan nan nan nan nan nan nan nan nan nan nan nan nan nan nan nan nan nan nan nan nan nan nan nan nan nan nan nan nan nan nan nan nan nan nan nan nan nan nan nan 232 236 242 247 238 234 234 239 248 246 248 248 252 247 254 259 259 258 262 259 253 257 261 264 266 274 275 275 282 286
nan nan nan nan nan nan nan nan nan nan nan nan nan nan nan nan nan nan nan nan nan nan nan nan nan nan nan nan nan nan nan nan nan nan nan nan nan nan nan nan nan nan nan nan nan nan nan nan nan nan nan nan nan nan nan nan 236 233 236 233 nan 233 234 238 240 240 243 247 245 249 257 257 254 253 254 259 263 266 267 267 260 267 271 276 281
nan nan nan nan nan nan nan nan nan nan nan nan nan nan nan nan nan nan nan nan nan nan nan nan nan nan nan nan nan nan nan nan nan nan nan nan nan nan nan nan nan nan nan nan nan nan nan nan nan nan nan nan nan nan 233 238 239 230 231 nan 235 238 nan nan nan nan 241 247 249 248 250 252 252 249 247 249 254 255 259 268 277 274 276 279 277
nan nan nan nan nan nan nan nan nan nan nan nan nan nan nan nan nan nan nan nan nan nan nan nan nan nan nan nan nan nan nan nan nan nan nan nan nan nan nan nan nan nan nan nan nan nan nan nan nan nan nan nan nan 230 227 228 235 227 233 nan nan nan nan nan nan nan nan 245 248 251 255 257 256 254 nan 253 255 254 255 262 267 270 274 276 278
nan nan nan nan nan nan nan nan nan nan nan nan nan nan nan nan nan nan nan nan nan nan nan nan nan nan nan nan nan nan nan nan nan nan nan nan nan nan nan nan nan nan nan nan nan nan nan nan nan nan nan nan nan 225 230 nan nan nan nan nan nan nan nan nan nan nan nan nan nan 242 243 248 252 nan nan nan nan nan nan 262 267 270 272 270 273
nan nan nan nan nan nan nan nan nan nan nan nan nan nan nan nan nan nan nan nan nan nan nan nan nan nan nan nan nan nan nan nan nan nan nan nan nan nan nan nan nan nan nan nan nan nan nan nan nan nan nan nan nan nan nan nan nan nan nan nan nan nan nan nan nan nan nan nan nan nan 238 238 237 nan nan nan nan nan nan nan nan nan 266 270 275
nan nan nan nan nan nan nan nan nan nan nan nan nan nan nan nan nan nan nan nan nan nan nan nan nan nan nan nan nan nan nan nan nan nan nan nan nan nan nan nan nan nan nan nan nan nan nan nan nan nan nan nan nan nan nan nan nan nan nan nan nan nan nan nan nan nan nan nan nan nan nan nan 237 nan nan nan nan nan nan nan nan nan nan nan 268
nan nan nan nan nan nan nan nan nan nan nan nan nan nan nan nan nan nan nan nan nan nan nan nan nan nan nan nan nan nan nan nan nan nan nan nan nan nan nan nan nan nan nan nan nan nan nan nan nan nan nan nan nan nan nan nan nan nan nan nan nan nan nan nan nan nan nan nan nan nan nan nan nan nan nan nan nan nan nan nan nan nan nan nan nan
nan nan nan nan nan nan nan nan nan nan nan nan nan nan nan nan nan nan nan nan nan nan nan nan nan nan nan nan nan nan nan nan nan nan nan nan nan nan nan nan nan nan nan nan nan nan nan nan nan nan nan nan nan nan nan nan nan nan nan nan nan nan nan nan nan nan nan nan nan nan nan nan nan nan nan nan nan nan nan nan nan nan nan nan nan
nan nan nan nan nan nan nan nan nan nan nan nan nan nan nan nan nan nan nan nan nan nan nan nan nan nan nan nan nan nan nan nan nan nan nan nan nan nan nan nan nan nan nan nan nan nan nan nan nan nan nan nan nan nan nan nan nan nan nan nan nan nan nan nan nan nan nan nan nan nan nan nan nan nan nan nan nan nan nan nan nan nan nan nan nan
nan nan nan nan nan nan nan nan nan nan nan nan nan nan nan nan nan nan nan nan nan nan nan nan nan nan nan nan nan nan nan nan nan nan nan nan nan nan nan nan nan nan nan nan nan nan nan nan nan nan nan nan nan nan nan nan nan nan nan nan nan nan nan nan nan nan nan nan nan nan nan nan nan nan nan nan nan nan nan nan nan nan nan nan nan
nan nan nan nan nan nan nan nan nan nan nan nan nan nan nan nan nan nan nan nan nan nan nan nan nan nan nan nan nan nan nan nan nan nan nan nan nan nan nan nan nan nan nan nan nan nan nan nan nan nan nan nan nan nan nan nan nan nan nan nan nan nan nan nan nan nan nan nan nan nan nan nan nan nan nan nan nan nan nan nan nan nan nan nan nan
nan nan nan 278 nan nan nan nan nan nan nan nan nan nan nan nan nan nan nan nan nan nan nan nan nan nan nan nan nan nan nan nan nan nan nan nan nan nan nan nan nan nan nan nan nan nan nan nan nan nan nan nan nan nan nan nan nan nan nan nan nan nan nan nan nan nan nan nan nan nan nan nan nan nan nan nan nan nan nan nan nan nan nan nan nan
nan nan 280 278 nan nan nan nan nan 290 292 294 nan nan nan nan nan nan nan nan nan nan 276 nan nan nan nan nan nan nan nan nan nan nan nan nan nan nan nan nan nan nan nan nan nan nan nan nan nan nan nan nan nan nan nan nan nan nan nan nan nan nan nan nan nan nan nan nan nan nan nan nan nan nan nan nan nan nan nan nan nan nan nan nan nan
254 nan 262 nan nan nan nan nan nan 283 285 nan nan nan nan nan nan nan nan nan nan nan nan nan 279 nan nan nan nan nan nan nan nan nan nan nan nan nan nan nan nan nan nan nan nan nan nan nan nan nan nan nan nan nan nan nan nan nan nan nan nan nan nan nan nan nan nan nan nan nan nan nan nan nan nan nan nan nan nan nan nan nan nan nan nan
267 272 nan 249 nan nan 284 284 284 283 nan nan nan nan nan nan nan nan nan nan nan 293 nan nan nan 280 276 nan nan nan nan nan nan nan nan nan nan nan nan nan nan nan nan nan nan nan nan nan nan nan nan nan nan nan nan nan nan nan nan nan nan nan nan nan nan nan nan nan nan nan nan nan nan nan nan nan nan nan nan nan nan nan nan nan nan
nan nan nan nan nan 277 275 nan 277 275 nan nan nan nan nan nan nan nan nan nan 298 298 297 nan nan nan nan nan nan nan nan nan nan nan nan nan nan nan nan nan nan nan nan nan nan nan nan nan nan nan nan nan nan nan nan nan nan nan nan nan nan nan nan nan nan nan nan nan nan nan nan nan nan nan nan nan nan nan nan nan nan nan nan nan nan
nan nan nan nan nan nan nan nan nan nan nan nan nan nan nan nan nan nan nan nan nan 296 297 nan nan 294 291 285 nan nan nan nan nan nan nan nan nan nan nan nan nan nan nan nan nan nan nan nan nan nan nan nan nan nan nan nan nan nan nan nan nan nan nan nan nan nan nan nan nan nan nan nan nan nan nan nan nan nan nan nan nan nan nan nan nan
279 282 282 283 284 282 280 277 274 274 275 275 273 278 283 287 285 286 291 294 295 297 298 297 297 296 292 nan 283 nan nan nan nan nan nan nan nan nan nan nan nan nan nan nan nan nan nan nan nan nan nan nan nan nan nan nan nan nan nan nan nan nan nan nan nan nan nan nan nan nan nan nan nan nan nan nan nan nan nan nan nan nan nan nan nan
280 280 282 282 280 276 275 275 276 276 276 270 266 270 274 277 281 284 287 292 295 296 297 295 292 292 nan 290 nan nan nan nan nan nan nan nan nan nan nan nan nan nan nan nan nan nan nan nan nan nan nan nan nan nan nan nan nan nan nan nan nan nan nan nan nan nan nan nan nan nan nan nan nan nan nan nan nan nan nan nan nan nan nan nan nan
273 274 274 275 276 276 275 275 275 274 273 268 267 271 274 278 284 288 286 289 290 292 288 286 290 293 289 287 284 nan nan nan nan nan nan nan nan nan nan nan nan nan nan nan nan nan nan nan nan nan nan nan nan nan nan nan nan nan nan nan nan nan nan nan nan nan nan nan nan nan nan nan nan nan nan nan nan nan nan nan nan nan nan nan nan
274 275 277 278 278 276 276 275 272 271 271 267 269 271 272 274 277 283 283 286 286 284 287 291 287 284 285 nan nan nan nan nan nan nan nan nan nan nan nan nan nan nan nan nan nan nan nan nan nan nan nan nan nan nan nan nan nan nan nan nan nan nan nan nan nan nan nan nan nan nan nan nan nan nan nan nan nan nan nan nan nan nan nan nan nan
nan nan nan 277 275 274 272 272 270 269 268 nan nan nan nan nan 267 270 273 275 276 276 275 275 278 nan 280 nan 278 nan nan nan nan nan nan nan nan nan nan nan nan nan nan nan nan nan nan nan nan nan nan nan nan nan nan nan nan nan nan nan nan nan nan nan nan nan nan nan nan nan nan nan nan nan nan nan nan nan nan nan nan nan nan nan nan
nan nan nan nan nan nan nan nan nan nan nan nan nan nan nan nan nan 269 271 272 273 273 274 276 277 nan nan nan nan nan nan nan nan nan nan nan nan nan nan nan nan nan nan nan nan nan nan nan nan nan nan nan nan nan nan nan nan nan nan nan nan nan nan nan nan nan nan nan nan nan nan nan nan nan nan nan nan nan nan nan nan nan nan nan nan
nan nan nan nan nan nan nan nan 274 272 270 nan nan nan nan nan nan nan nan 273 273 274 275 276 276 nan nan nan nan nan nan nan nan nan nan nan nan nan nan nan nan nan nan nan nan nan nan nan nan nan nan nan nan nan nan nan nan nan nan nan nan nan nan nan nan nan nan nan nan nan nan nan nan nan nan nan nan nan nan nan nan nan nan nan nan
nan nan nan nan nan nan 280 279 278 277 274 271 nan nan nan nan nan nan nan nan nan nan nan nan nan nan nan nan nan nan nan nan nan nan nan nan nan nan nan nan nan nan nan nan nan nan nan nan nan nan nan nan nan nan nan nan nan nan nan nan nan nan nan nan nan nan nan nan nan nan nan nan nan nan nan nan nan nan nan nan nan nan nan nan nan
nan nan nan nan nan 272 275 277 279 277 276 nan nan nan nan nan nan nan nan 274 nan nan nan nan nan nan nan nan nan nan nan nan nan nan nan nan nan nan nan nan nan nan nan nan nan nan nan nan nan nan nan nan nan nan nan nan nan nan nan nan nan nan nan nan nan nan nan nan nan nan nan nan nan nan nan nan nan nan nan nan nan nan nan nan nan